This is the latest recevied weather packets stored in our database for station/object K3HM. If no packets are shown the sender has not sent any weather packets the latest 1 day(s).
| Time | Temp. | Humidity | Pressure | Rain* | Wind** | Luminosity | Snow |
|---|---|---|---|---|---|---|---|
| 1778051282 | 12.78° C | 82% | 1009.6 hPa | 0 mm | - | 0 W/m² | - |
| 1778050979 | 12.78° C | 83% | 1009.5 hPa | 0 mm | - | 0 W/m² | - |
| 1778050676 | 12.78° C | 81% | 1009.9 hPa | 0 mm | - | 0 W/m² | - |
| 1778050373 | 12.78° C | 82% | 1009.9 hPa | 0 mm | - | 0 W/m² | - |
| 1778050070 | 12.78° C | 83% | 1010 hPa | 0 mm | - | 0 W/m² | - |
| 1778049463 | 13.33° C | 83% | 1009.9 hPa | 0 mm | - | 0 W/m² | - |
| 1778048859 | 13.33° C | 76% | 1010 hPa | 0 mm | - | 0 W/m² | - |
| 1778048556 | 13.33° C | 78% | 1010.1 hPa | 0 mm | - | 0 W/m² | - |
| 1778048252 | 13.33° C | 80% | 1010.1 hPa | 0 mm | - | 0 W/m² | - |
| 1778047648 | 13.89° C | 78% | 1010 hPa | 0 mm | - | 0 W/m² | - |
| 1778046435 | 13.33° C | 80% | 1010.4 hPa | 0 mm | - | 0 W/m² | - |
| 1778045829 | 13.89° C | 81% | 1010.4 hPa | 0 mm | - | 0 W/m² | - |
| 1778044015 | 13.89° C | 73% | 1010.8 hPa | 0 mm | - | 0 W/m² | - |
| 1778043408 | 13.89° C | 76% | 1011 hPa | 0 mm | - | 0 W/m² | - |
| 1778043105 | 13.89° C | 74% | 1011.3 hPa | 0 mm | - | 0 W/m² | - |
| 1778042802 | 13.89° C | 74% | 1011.2 hPa | 0 mm | - | 0 W/m² | - |
| 1778042499 | 13.89° C | 74% | 1011.2 hPa | 0 mm | - | 0 W/m² | - |
| 1778042196 | 13.89° C | 73% | 1011.1 hPa | 0 mm | - | 0 W/m² | - |
| 1778041894 | 13.89° C | 74% | 1011.1 hPa | 0 mm | - | 0 W/m² | - |
| 1778041593 | 13.89° C | 74% | 1011.3 hPa | 0 mm | - | 0 W/m² | - |
| 1778041291 | 14.44° C | 71% | 1011.2 hPa | 0 mm | - | 0 W/m² | - |
| 1778040989 | 14.44° C | 70% | 1011.3 hPa | 0 mm | - | 0 W/m² | - |
| 1778040685 | 14.44° C | 69% | 1011.2 hPa | 0 mm | - | 0 W/m² | - |
| 1778040383 | 13.89° C | 72% | 1011.1 hPa | 0 mm | - | 0 W/m² | - |
| 1778040080 | 13.89° C | 75% | 1011.1 hPa | 0 mm | - | 0 W/m² | - |
* Rain latest hour (hover to see other rain measurements)
** Current wind speed in m/s (hover to see current wind gust speed)